GW1497 Weather Reports


time (UTC)temp
C
wind
direction
speed
KPH
gust
KPH
rain 1hr
cm
rain 24hr
cm
rain mn
cm
humidity
%
barometer
mb
20260502164244 9 281 6.4 14.5 0.00 0.00 0.00 49 1017.6
20260502163631 8 271 4.8 11.3 0.00 0.00 0.00 50 1017.9
20260502163054 8 256 9.7 19.3 0.00 0.00 0.00 51 1017.9
20260502162442 10 244 6.4 19.3 0.00 0.00 0.00 48 1017.9
20260502161816 9 283 3.2 14.5 0.00 0.00 0.00 52 1017.9
20260502161221 9 256 12.9 12.9 0.00 0.00 0.00 48 1017.9
20260502160623 10 258 14.5 27.4 0.00 0.00 0.00 46 1017.9
20260502151833 9 297 9.7 16.1 0.00 0.00 0.00 54 1017.9
20260502151241 9 290 8.0 9.7 0.00 0.00 0.00 50 1017.9
20260502150650 9 251 4.8 12.9 0.00 0.00 0.00 53 1017.9
20260502130631 6 249 3.2 4.8 0.00 0.00 0.00 87 1017.9
20260502123635 5 174 4.8 4.8 0.00 0.00 0.00 95 1017.9
20260502122440 4 161 1.6 4.8 0.00 0.00 0.00 95 1017.9
20260502121222 3 125 1.6 3.2 0.00 0.00 0.00 98 1017.9
20260502120644 3 113 0.0 3.2 0.00 0.00 0.00 99 1018.2
20260502115451 3 149 0.0 3.2 0.00 0.00 0.00 99 1017.9
20260502114813 3 128 0.0 1.6 0.00 0.00 0.00 99 1017.9
20260502114232 3 26 0.0 1.6 0.00 0.00 0.00 99 1018.2
20260502113611 3 9 1.6 3.2 0.00 0.00 0.00 99 1018.2
20260502113039 3 9 3.2 3.2 0.00 0.00 0.00 99 1017.9
20260502112437 2 14 3.2 3.2 0.00 0.00 0.00 99 1017.9
20260502111828 2 42 0.0 1.6 0.00 0.00 0.00 99 1017.9
20260502111226 1 57 1.6 3.2 0.00 0.00 0.00 99 1018.2
20260502110017 1 35 0.0 3.2 0.00 0.00 0.00 99 1017.9
20260502105418 1 48 0.0 1.6 0.00 0.00 0.00 99 1017.9
20260502104829 1 316 0.0 1.6 0.00 0.00 0.00 99 1018.2
20260502104217 0 45 0.0 1.6 0.00 0.00 0.00 99 1017.9
20260502103635 0 357 1.6 3.2 0.00 0.00 0.00 99 1017.9
20260502103043 1 38 3.2 3.2 0.00 0.00 0.00 99 1018.2
20260502102419 1 352 1.6 1.6 0.00 0.00 0.00 99 1017.9
20260502101846 1 143 0.0 1.6 0.00 0.00 0.00 99 1017.9
20260502100630 0 112 1.6 1.6 0.00 0.00 0.00 99 1017.9
20260502091252 1 169 1.6 3.2 0.00 0.00 0.00 99 1017.9
20260502090624 1 192 0.0 3.2 0.00 0.00 0.00 99 1017.9
20260502071224 2 48 0.0 1.6 0.00 0.00 0.00 99 1017.9
20260502070652 2 48 0.0 3.2 0.00 0.00 0.00 99 1017.9
20260502070035 2 130 0.0 1.6 0.00 0.00 0.00 99 1017.9
20260502063651 3 286 0.0 1.6 0.00 0.00 0.00 99 1017.9
20260502063042 2 270 1.6 1.6 0.00 0.00 0.00 99 1017.9
20260502061814 2 23 3.2 3.2 0.00 0.00 0.00 99 1018.2
20260502061249 2 319 0.0 0.0 0.00 0.00 0.00 99 1018.2
20260502060622 2 286 0.0 0.0 0.00 0.00 0.00 99 1018.2
20260502060047 2 157 0.0 0.0 0.00 0.00 0.00 98 1018.2
20260502055448 2 137 3.2 3.2 0.00 0.00 0.00 98 1018.2
20260502054820 3 167 3.2 3.2 0.00 0.00 0.00 98 1018.2
20260502054251 2 157 3.2 3.2 0.00 0.00 0.00 98 1018.6
20260502053021 2 82 0.0 1.6 0.00 0.00 0.00 97 1018.2
20260502052415 2 172 3.2 3.2 0.00 0.00 0.00 97 1018.6
20260502051826 3 152 3.2 4.8 0.00 0.00 0.00 96 1018.6
20260502051220 3 160 3.2 3.2 0.00 0.00 0.00 95 1018.6
20260502050628 3 128 3.2 3.2 0.00 0.00 0.00 95 1018.6
20260502050039 3 79 3.2 4.8 0.00 0.00 0.00 94 1018.2
20260502045433 3 107 3.2 3.2 0.00 0.00 0.00 95 1018.6
20260502044838 3 105 1.6 3.2 0.00 0.00 0.00 95 1018.6
20260502043629 3 263 1.6 1.6 0.00 0.00 0.00 94 1018.6
20260502043043 3 309 3.2 3.2 0.00 0.00 0.00 95 1018.6
20260502042435 3 303 3.2 3.2 0.00 0.00 0.00 95 1018.6
20260502041810 3 294 1.6 3.2 0.00 0.00 0.00 95 1018.2
20260502041217 3 3 0.0 1.6 0.00 0.00 0.00 95 1018.6
20260502040649 3 251 0.0 1.6 0.00 0.00 0.00 94 1018.6
20260502040019 3 23 0.0 3.2 0.00 0.00 0.05 94 1018.2
20260502035442 3 58 0.0 1.6 0.00 0.00 0.05 93 1018.6
20260502034810 4 14 0.0 1.6 0.00 0.00 0.05 92 1018.6
20260502034246 4 36 1.6 3.2 0.00 0.00 0.05 92 1018.6
20260502033649 4 344 1.6 3.2 0.00 0.00 0.05 91 1018.6
20260502033012 4 355 0.0 3.2 0.00 0.00 0.05 90 1018.6
20260502032426 5 342 0.0 1.6 0.00 0.00 0.05 88 1018.9
20260502031841 5 314 3.2 3.2 0.00 0.00 0.05 88 1018.9
20260502031213 5 194 0.0 1.6 0.00 0.00 0.05 88 1018.6
20260502030616 5 194 0.0 1.6 0.00 0.00 0.05 88 1018.6
20260502030046 5 123 0.0 1.6 0.00 0.00 0.05 87 1018.6
20260502025414 5 31 0.0 1.6 0.00 0.00 0.05 86 1018.6
20260502024827 5 128 0.0 0.0 0.00 0.00 0.05 85 1018.2
20260502024219 5 297 0.0 1.6 0.00 0.00 0.05 85 1018.2
20260502023624 6 263 0.0 3.2 0.00 0.00 0.05 84 1018.6
20260502023047 5 268 1.6 3.2 0.00 0.00 0.05 84 1018.2
20260502022427 6 298 0.0 3.2 0.00 0.00 0.05 83 1017.9
20260502021812 6 328 3.2 3.2 0.00 0.00 0.05 83 1017.9
20260502021234 6 330 3.2 3.2 0.00 0.00 0.05 83 1017.9
20260502020614 6 332 3.2 4.8 0.00 0.00 0.05 82 1017.6
20260502020036 6 304 4.8 6.4 0.00 0.00 0.05 81 1017.9
20260502015431 6 315 4.8 6.4 0.00 0.00 0.05 81 1017.9
20260502014842 6 295 4.8 6.4 0.00 0.00 0.05 79 1017.6
20260502014227 6 264 3.2 9.7 0.00 0.00 0.05 79 1017.9
20260502013620 7 295 4.8 9.7 0.00 0.00 0.05 78 1017.6
20260502013036 7 303 6.4 11.3 0.00 0.00 0.05 77 1017.6
20260502012450 7 332 3.2 6.4 0.00 0.00 0.05 77 1017.6
20260502011841 7 299 8.0 9.7 0.00 0.00 0.05 76 1017.2
20260502011224 7 255 3.2 4.8 0.00 0.00 0.05 77 1017.2
20260502010625 7 302 9.7 16.1 0.00 0.00 0.05 74 1016.9
20260502010053 7 289 8.0 8.0 0.00 0.00 0.05 76 1016.5
20260502005446 8 296 12.9 16.1 0.00 0.00 0.05 72 1016.9
20260502004843 8 296 12.9 14.5 0.00 0.00 0.05 72 1016.9
20260502004227 8 275 8.0 14.5 0.00 0.00 0.05 72 1016.5
20260502003649 8 294 19.3 19.3 0.00 0.00 0.05 70 1016.2
20260502002449 8 297 11.3 16.1 0.00 0.00 0.05 69 1015.9
20260502001832 8 307 17.7 19.3 0.00 0.00 0.05 73 1015.9
20260502001246 9 297 12.9 24.1 0.00 0.00 0.05 74 1015.5
20260502000031 10 299 16.1 19.3 0.00 0.00 0.05 75 1015.5
20260501235453 10 257 4.8 6.4 0.00 0.00 0.05 82 1015.2
20260501234840 10 241 4.8 6.4 0.00 0.00 0.05 81 1015.2
20260501234253 10 270 1.6 4.8 0.00 0.00 0.05 82 1014.9
20260501233644 10 258 6.4 6.4 0.00 0.00 0.05 80 1014.9
20260501233024 10 266 0.0 8.0 0.00 0.00 0.05 81 1014.9
20260501232442 10 233 4.8 4.8 0.00 0.00 0.05 80 1014.5
20260501231817 10 269 4.8 8.0 0.00 0.00 0.05 80 1014.5
20260501231255 10 256 4.8 9.7 0.00 0.00 0.05 80 1014.5
20260501230650 10 232 3.2 4.8 0.00 0.00 0.05 80 1014.5
20260501230036 10 232 0.0 8.0 0.00 0.00 0.05 79 1014.5
20260501225415 10 206 4.8 12.9 0.00 0.00 0.05 80 1014.5
20260501224827 10 249 8.0 16.1 0.00 0.00 0.05 81 1014.5
20260501224233 10 202 3.2 9.7 0.00 0.00 0.05 81 1014.5
20260501223616 10 216 1.6 12.9 0.00 0.00 0.05 81 1014.5
20260501223053 10 264 0.0 8.0 0.00 0.00 0.05 81 1014.5
20260501222451 10 169 8.0 12.9 0.00 0.00 0.05 81 1014.5
20260501221839 10 169 9.7 9.7 0.00 0.00 0.05 82 1014.5
20260501221246 10 175 4.8 9.7 0.00 0.00 0.05 85 1014.5
20260501220645 10 133 8.0 8.0 0.00 0.00 0.05 84 1014.5
20260501220021 10 158 4.8 9.7 0.00 0.00 0.05 86 1014.5
20260501215415 9 292 3.2 6.4 0.00 0.00 0.05 86 1014.9
20260501214238 9 198 3.2 3.2 0.00 0.00 0.05 88 1014.5
20260501213041 9 244 6.4 8.0 0.00 0.00 0.05 85 1014.5
20260501211829 10 247 4.8 14.5 0.00 0.00 0.05 84 1014.5
20260501211210 10 262 6.4 8.0 0.00 0.00 0.03 86 1014.5
20260501210617 10 349 1.6 6.4 0.00 0.00 0.03 84 1014.5
20260501210030 10 272 6.4 6.4 0.00 0.00 0.03 84 1014.5
20260501205421 10 240 6.4 8.0 0.00 0.00 0.03 83 1014.5
20260501204849 10 269 4.8 6.4 0.00 0.00 0.03 83 1014.5
20260501203622 10 284 8.0 19.3 0.00 0.00 0.03 81 1014.5
20260501202444 10 247 6.4 16.1 0.00 0.00 0.03 80 1014.2
20260501201809 10 247 3.2 9.7 0.00 0.00 0.03 82 1014.2
20260501201239 10 246 6.4 8.0 0.00 0.00 0.03 83 1014.2
20260501200048 10 285 6.4 8.0 0.00 0.00 0.03 86 1014.2
20260501194853 10 282 12.9 19.3 0.00 0.00 0.03 80 1014.5
20260501194230 11 260 11.3 14.5 0.00 0.00 0.00 70 1014.2
20260501193623 11 293 8.0 14.5 0.00 0.00 0.00 69 1013.8
20260501193039 12 280 9.7 17.7 0.00 0.00 0.00 67 1013.8
20260501192423 13 275 11.3 17.7 0.00 0.00 0.00 60 1013.5
20260501191236 13 271 6.4 11.3 0.00 0.00 0.00 51 1013.5
20260501190645 14 283 6.4 6.4 0.00 0.00 0.00 55 1013.5
20260501190012 14 256 6.4 11.3 0.00 0.00 0.00 51 1013.5
20260501185428 15 264 9.7 9.7 0.00 0.00 0.00 47 1013.2
20260501184841 15 243 6.4 8.0 0.00 0.00 0.00 50 1013.2
20260501184223 15 209 9.7 16.1 0.00 0.00 0.00 49 1013.5
20260501183648 15 258 3.2 8.0 0.00 0.00 0.00 50 1013.2
20260501182421 15 182 14.5 24.1 0.00 0.00 0.00 45 1013.2
20260501181823 15 208 12.9 24.1 0.00 0.00 0.00 44 1013.2
20260501181238 15 259 3.2 12.9 0.00 0.00 0.00 45 1013.2
20260501180653 14 216 1.6 9.7 0.00 0.00 0.00 49 1013.5
20260501180037 14 114 3.2 12.9 0.00 0.00 0.00 52 1013.5